This is the latest recevied weather packets stored in our database for station/object AA0PB. If no packets are shown the sender has not sent any weather packets the latest 10 day(s).
| Time | Temp. | Humidity | Pressure | Rain* | Wind** | Luminosity | Snow |
|---|---|---|---|---|---|---|---|
| 1777393779 | 11.11° C | 77% | 1024.1 hPa | 0 mm | - | 262 W/m² | - |
| 1777393473 | 11.67° C | 77% | 1024.1 hPa | 0 mm | - | 234 W/m² | - |
| 1777393169 | 10.56° C | 80% | 1024.2 hPa | 0 mm | - | 224 W/m² | - |
| 1777392866 | 11.11° C | 80% | 1024.2 hPa | 0 mm | - | 190 W/m² | - |
| 1777392561 | 10.56° C | 83% | 1024.2 hPa | 0 mm | - | 161 W/m² | - |
| 1777392257 | 10.56° C | 83% | 1024.1 hPa | 0 mm | - | 113 W/m² | - |
| 1777391952 | 10.56° C | 84% | 1024.1 hPa | 0 mm | - | 93 W/m² | - |
| 1777391647 | 10.56° C | 84% | 1024.1 hPa | 0 mm | - | 75 W/m² | - |
| 1777391344 | 10° C | 85% | 1024.2 hPa | 0 mm | - | 89 W/m² | - |
| 1777391041 | 10° C | 85% | 1024 hPa | 0 mm | - | 103 W/m² | - |
| 1777390736 | 10° C | 86% | 1023.9 hPa | 0 mm | - | 105 W/m² | - |
| 1777390433 | 10° C | 86% | 1024.1 hPa | 0 mm | - | 102 W/m² | - |
| 1777390130 | 10° C | 88% | 1024.1 hPa | 0 mm | - | 91 W/m² | - |
| 1777389827 | 10° C | 87% | 1024 hPa | 0 mm | - | 87 W/m² | - |
| 1777389524 | 10° C | 88% | 1024.1 hPa | 0 mm | - | 106 W/m² | - |
| 1777389220 | 9.44° C | 89% | 1023.9 hPa | 0 mm | - | 110 W/m² | - |
| 1777388919 | 9.44° C | 90% | 1023.7 hPa | 0 mm | - | 100 W/m² | - |
| 1777388614 | 9.44° C | 91% | 1023.6 hPa | 0 mm | - | 91 W/m² | - |
| 1777388311 | 9.44° C | 91% | 1023.7 hPa | 0 mm | - | 83 W/m² | - |
| 1777388011 | 8.89° C | 91% | 1023.8 hPa | 0 mm | - | 59 W/m² | - |
| 1777387708 | 8.89° C | 91% | 1023.9 hPa | 0 mm | - | 46 W/m² | - |
| 1777387404 | 8.89° C | 91% | 1023.7 hPa | 0 mm | - | 48 W/m² | - |
| 1777387098 | 8.89° C | 91% | 1023.5 hPa | 0 mm | - | 44 W/m² | - |
| 1777386795 | 8.89° C | 91% | 1023.6 hPa | 0 mm | - | 38 W/m² | - |
| 1777386492 | 8.89° C | 92% | 1023.6 hPa | 0 mm | - | 37 W/m² | - |
* Rain latest hour (hover to see other rain measurements)
** Current wind speed in m/s (hover to see current wind gust speed)